Location: Alt?nova Orta
(36.9295°N, 30.7847°E)
Time: 04:06:16
(UTC+00:00)

STARLINK-1078 - Pass Details

Date: 17 February 2020
Orbit: 548 x 551 km, 53.0° (Epoch: 09 April)

Event Time Altitude Azimuth Distance (km) Brightness Sun altitude
Exits shadow 02:19:46 29° 53° (NE) 1,032 5.4 -29.4°
Drops below altitude 10° 02:21:52 10° 50° (NE) 1,827 6.9 -29.0°
Enters shadow 03:21:54 -63° 233° (SW) 11,972 10.3 -17.0°
